Location: Caltech
(34.1382°N, 118.1253°W)
Time: 02:24:38
(UTC-07:00)

Gurwin Techsat 1B - Visible Passes

Search period start: 01 April 2015 00:00
Search period end: 11 April 2015 00:00
Orbit: 812 x 814 km, 98.5° (Epoch: 31 March)

Date Brightness Start Highest point End Pass type
(mag) Time Alt. Az. Time Alt. Az. Time Alt. Az.
01 Apr 10.5 03:25:08 10° NNE 03:27:11 24° NNE 03:27:11 24° NNE visible
02 Apr 10.9 03:02:36 10° NNE 03:04:19 20° NNE 03:04:19 20° NNE visible
02 Apr 10.5 04:43:44 10° NNW 04:45:32 16° NW 04:45:32 16° NW visible
03 Apr 11.2 02:40:22 10° NE 02:41:26 15° NE 02:41:26 15° NE visible
03 Apr 10.2 04:20:14 10° N 04:22:39 22° NNW 04:22:39 22° NNW visible
04 Apr 10.0 03:57:06 10° N 03:59:47 28° NNW 03:59:47 28° NNW visible
05 Apr 10.1 03:34:14 10° N 03:36:54 31° N 03:36:54 31° N visible
06 Apr 10.4 03:11:35 10° NNE 03:14:01 27° NNE 03:14:01 27° NNE visible
06 Apr 10.5 04:53:23 10° NNW 04:55:14 14° NW 04:55:14 14° NW visible
07 Apr 10.9 02:49:13 10° NNE 02:51:08 20° NE 02:51:08 20° NE visible
07 Apr 10.1 04:29:36 10° NNW 04:32:22 22° NW 04:32:22 22° NW visible
08 Apr 11.3 02:27:15 10° NE 02:28:16 14° NE 02:28:16 14° NE visible
08 Apr 9.8 04:06:21 10° N 04:09:29 30° NNW 04:09:29 30° NNW visible
09 Apr 9.7 03:43:22 10° N 03:46:36 37° N 03:46:36 37° N visible
10 Apr 9.9 03:20:38 10° NNE 03:23:43 36° NNE 03:23:43 36° NNE visible
10 Apr 10.6 05:03:20 10° NW 05:04:56 12° WNW 05:04:56 12° WNW visible
